| time (UTC) | temp F | wind direction | speed MPH | gust MPH | rain 1hr in | rain 24hr in | rain mn in | humidity % | barometer mb |
| 20260504050527 | 41 | 270 | 1.0 | 4.0 | 0.00 | 0.00 | 0.00 | 78 | 1015.2 |
| 20260504050025 | 41 | 270 | 1.0 | 5.0 | 0.00 | 0.00 | 0.00 | 78 | 1015.2 |
| 20260504045520 | 41 | 270 | 2.0 | 5.0 | 0.00 | 0.00 | 0.00 | 79 | 1015.3 |
| 20260504045017 | 41 | 270 | 1.0 | 3.0 | 0.00 | 0.00 | 0.00 | 79 | 1015.4 |
| 20260504044516 | 41 | 270 | 0.0 | 1.0 | 0.00 | 0.00 | 0.00 | 78 | 1015.3 |
| 20260504044032 | 42 | 270 | 0.0 | 1.0 | 0.00 | 0.00 | 0.00 | 78 | 1015.3 |
| 20260504043529 | 42 | 270 | 0.0 | 1.0 | 0.00 | 0.00 | 0.00 | 77 | 1015.3 |
| 20260504043026 | 42 | 270 | 0.0 | 0.0 | 0.00 | 0.00 | 0.00 | 76 | 1015.2 |
| 20260504042524 | 42 | 270 | 0.0 | 0.0 | 0.00 | 0.00 | 0.00 | 76 | 1015.3 |
| 20260504042021 | 42 | 270 | 0.0 | 1.0 | 0.00 | 0.00 | 0.00 | 75 | 1015.3 |
| 20260504041518 | 43 | 270 | 0.0 | 2.0 | 0.00 | 0.00 | 0.00 | 75 | 1015.2 |
| 20260504041014 | 43 | 270 | 0.0 | 2.0 | 0.00 | 0.00 | 0.00 | 75 | 1015.2 |
| 20260504040532 | 43 | 270 | 1.0 | 2.0 | 0.00 | 0.00 | 0.00 | 75 | 1015.1 |
| 20260504040029 | 43 | 270 | 0.0 | 2.0 | 0.00 | 0.00 | 0.00 | 75 | 1015.1 |
| 20260504035527 | 43 | 270 | 1.0 | 4.0 | 0.00 | 0.00 | 0.00 | 75 | 1015.2 |
| 20260504035025 | 43 | 270 | 0.0 | 4.0 | 0.00 | 0.00 | 0.00 | 75 | 1015.1 |
| 20260504034523 | 43 | 270 | 1.0 | 2.0 | 0.00 | 0.00 | 0.00 | 73 | 1014.9 |
| 20260504034020 | 44 | 270 | 1.0 | 2.0 | 0.00 | 0.00 | 0.00 | 71 | 1015.0 |
| 20260504033518 | 44 | 270 | 1.0 | 2.0 | 0.00 | 0.00 | 0.00 | 70 | 1014.9 |
| 20260504033037 | 45 | 270 | 1.0 | 2.0 | 0.00 | 0.00 | 0.00 | 67 | 1015.1 |
| 20260504032533 | 46 | 270 | 1.0 | 2.0 | 0.00 | 0.00 | 0.00 | 66 | 1015.0 |
| 20260504032031 | 46 | 270 | 1.0 | 4.0 | 0.00 | 0.00 | 0.00 | 66 | 1015.0 |
| 20260504031529 | 46 | 270 | 3.0 | 4.0 | 0.00 | 0.00 | 0.00 | 66 | 1015.0 |
| 20260504031027 | 46 | 270 | 0.0 | 2.0 | 0.00 | 0.00 | 0.00 | 66 | 1015.1 |
| 20260504030524 | 46 | 270 | 0.0 | 4.0 | 0.00 | 0.00 | 0.00 | 66 | 1015.1 |
| 20260504030022 | 46 | 270 | 0.0 | 5.0 | 0.00 | 0.00 | 0.00 | 66 | 1015.1 |
| 20260504025518 | 46 | 270 | 3.0 | 5.0 | 0.00 | 0.00 | 0.00 | 66 | 1015.0 |
| 20260504025016 | 46 | 270 | 0.0 | 5.0 | 0.00 | 0.00 | 0.00 | 66 | 1015.0 |
| 20260504024534 | 46 | 270 | 1.0 | 5.0 | 0.00 | 0.00 | 0.00 | 67 | 1014.9 |
| 20260504024032 | 46 | 270 | 2.0 | 5.0 | 0.00 | 0.00 | 0.00 | 67 | 1014.9 |
| 20260504023530 | 46 | 270 | 0.0 | 2.0 | 0.00 | 0.00 | 0.00 | 67 | 1014.9 |
| 20260504023048 | 47 | 270 | 0.0 | 2.0 | 0.00 | 0.00 | 0.00 | 66 | 1014.9 |
| 20260504022545 | 47 | 270 | 2.0 | 2.0 | 0.00 | 0.00 | 0.00 | 64 | 1014.9 |
| 20260504022021 | 47 | 270 | 0.0 | 2.0 | 0.00 | 0.00 | 0.00 | 63 | 1014.8 |
| 20260504021519 | 47 | 270 | 0.0 | 2.0 | 0.00 | 0.00 | 0.00 | 62 | 1014.8 |
| 20260504021017 | 47 | 270 | 0.0 | 2.0 | 0.00 | 0.00 | 0.00 | 62 | 1014.7 |
| 20260504020534 | 47 | 270 | 0.0 | 2.0 | 0.00 | 0.00 | 0.00 | 63 | 1014.8 |
| 20260504020032 | 47 | 270 | 0.0 | 1.0 | 0.00 | 0.00 | 0.00 | 61 | 1014.6 |
| 20260504015529 | 48 | 270 | 0.0 | 2.0 | 0.00 | 0.00 | 0.00 | 60 | 1014.6 |
| 20260504015028 | 48 | 270 | 0.0 | 2.0 | 0.00 | 0.00 | 0.00 | 60 | 1014.6 |
| 20260504014546 | 48 | 270 | 1.0 | 2.0 | 0.00 | 0.00 | 0.00 | 58 | 1014.6 |
| 20260504014022 | 49 | 270 | 0.0 | 0.0 | 0.00 | 0.00 | 0.00 | 56 | 1014.5 |
| 20260504013520 | 49 | 270 | 0.0 | 0.0 | 0.00 | 0.00 | 0.00 | 54 | 1014.5 |
| 20260504013018 | 50 | 270 | 0.0 | 2.0 | 0.00 | 0.00 | 0.00 | 53 | 1014.4 |
| 20260504012552 | 50 | 270 | 1.0 | 2.0 | 0.00 | 0.00 | 0.00 | 54 | 1014.3 |
| 20260504012029 | 50 | 270 | 0.0 | 0.0 | 0.00 | 0.00 | 0.00 | 52 | 1014.3 |
| 20260504011527 | 50 | 270 | 0.0 | 1.0 | 0.00 | 0.00 | 0.00 | 51 | 1014.2 |
| 20260504011023 | 51 | 270 | 0.0 | 2.0 | 0.00 | 0.00 | 0.00 | 50 | 1014.2 |
| 20260504010539 | 51 | 270 | 0.0 | 2.0 | 0.00 | 0.00 | 0.00 | 48 | 1014.2 |
| 20260504010015 | 52 | 270 | 1.0 | 2.0 | 0.00 | 0.00 | 0.00 | 47 | 1014.3 |
| 20260504005533 | 52 | 270 | 0.0 | 1.0 | 0.00 | 0.00 | 0.00 | 45 | 1014.3 |
| 20260504005029 | 52 | 270 | 0.0 | 2.0 | 0.00 | 0.00 | 0.00 | 45 | 1014.2 |
| 20260504004527 | 53 | 270 | 0.0 | 2.0 | 0.00 | 0.00 | 0.00 | 44 | 1014.2 |
| 20260504004024 | 54 | 270 | 0.0 | 2.0 | 0.00 | 0.00 | 0.00 | 44 | 1014.2 |
| 20260504003522 | 55 | 270 | 1.0 | 5.0 | 0.00 | 0.00 | 0.00 | 43 | 1014.1 |
| 20260504003020 | 54 | 270 | 0.0 | 5.0 | 0.00 | 0.00 | 0.00 | 42 | 1014.1 |
| 20260504002518 | 55 | 270 | 0.0 | 5.0 | 0.00 | 0.00 | 0.00 | 43 | 1014.0 |
| 20260504002037 | 56 | 270 | 1.0 | 5.0 | 0.00 | 0.00 | 0.00 | 41 | 1014.0 |
| 20260504001534 | 56 | 270 | 1.0 | 7.0 | 0.00 | 0.00 | 0.00 | 40 | 1013.9 |
| 20260504001031 | 57 | 270 | 4.0 | 7.0 | 0.00 | 0.00 | 0.00 | 39 | 1014.0 |
| 20260504000528 | 57 | 270 | 3.0 | 6.0 | 0.00 | 0.00 | 0.00 | 39 | 1013.8 |
| 20260504000025 | 57 | 270 | 1.0 | 7.0 | 0.00 | 0.00 | 0.00 | 39 | 1013.9 |
| 20260503235544 | 58 | 270 | 4.0 | 7.0 | 0.00 | 0.00 | 0.00 | 37 | 1013.9 |
| 20260503235020 | 58 | 271 | 3.0 | 7.0 | 0.00 | 0.00 | 0.00 | 38 | 1013.8 |
| 20260503234518 | 58 | 271 | 5.0 | 8.0 | 0.00 | 0.00 | 0.00 | 37 | 1013.7 |
| 20260503234016 | 59 | 278 | 4.0 | 10.0 | 0.00 | 0.00 | 0.00 | 36 | 1013.7 |
| 20260503233534 | 59 | 278 | 4.0 | 12.0 | 0.00 | 0.00 | 0.00 | 36 | 1013.6 |
| 20260503233032 | 59 | 244 | 7.0 | 12.0 | 0.00 | 0.00 | 0.00 | 35 | 1013.5 |
| 20260503232529 | 59 | 310 | 5.0 | 12.0 | 0.00 | 0.00 | 0.00 | 35 | 1013.6 |
| 20260503232026 | 59 | 277 | 3.0 | 11.0 | 0.00 | 0.00 | 0.00 | 36 | 1013.6 |
| 20260503231545 | 60 | 265 | 6.0 | 10.0 | 0.00 | 0.00 | 0.00 | 35 | 1013.5 |
| 20260503231042 | 60 | 196 | 6.0 | 10.0 | 0.00 | 0.00 | 0.00 | 35 | 1013.4 |
| 20260503230549 | 60 | 264 | 6.0 | 11.0 | 0.00 | 0.00 | 0.00 | 34 | 1013.3 |
| 20260503230020 | 60 | 294 | 8.0 | 11.0 | 0.00 | 0.00 | 0.00 | 33 | 1013.3 |
| 20260503225554 | 60 | 256 | 6.0 | 13.0 | 0.00 | 0.00 | 0.00 | 35 | 1013.3 |
| 20260503225030 | 61 | 269 | 6.0 | 15.0 | 0.00 | 0.00 | 0.00 | 35 | 1013.2 |
| 20260503224527 | 61 | 315 | 7.0 | 15.0 | 0.00 | 0.00 | 0.00 | 35 | 1013.2 |
| 20260503224046 | 61 | 267 | 6.0 | 13.0 | 0.00 | 0.00 | 0.00 | 35 | 1013.3 |
| 20260503223523 | 61 | 256 | 9.0 | 16.0 | 0.00 | 0.00 | 0.00 | 34 | 1013.3 |
| 20260503223019 | 61 | 299 | 7.0 | 18.0 | 0.00 | 0.00 | 0.00 | 34 | 1013.3 |
| 20260503222517 | 61 | 271 | 11.0 | 19.0 | 0.00 | 0.00 | 0.00 | 33 | 1013.4 |
| 20260503222015 | 61 | 248 | 10.0 | 19.0 | 0.00 | 0.00 | 0.00 | 33 | 1013.3 |
| 20260503221533 | 61 | 227 | 8.0 | 18.0 | 0.00 | 0.00 | 0.00 | 34 | 1013.5 |
| 20260503221031 | 61 | 290 | 8.0 | 15.0 | 0.00 | 0.00 | 0.00 | 35 | 1013.5 |
| 20260503220528 | 61 | 299 | 8.0 | 20.0 | 0.00 | 0.00 | 0.00 | 33 | 1013.5 |
| 20260503220026 | 62 | 285 | 11.0 | 24.0 | 0.00 | 0.00 | 0.00 | 33 | 1013.6 |
| 20260503215523 | 62 | 258 | 12.0 | 24.0 | 0.00 | 0.00 | 0.00 | 34 | 1013.6 |
| 20260503215019 | 62 | 290 | 6.0 | 18.0 | 0.00 | 0.00 | 0.00 | 33 | 1013.7 |
| 20260503214516 | 61 | 312 | 9.0 | 18.0 | 0.00 | 0.00 | 0.00 | 35 | 1013.7 |
| 20260503214033 | 60 | 296 | 9.0 | 16.0 | 0.00 | 0.00 | 0.00 | 34 | 1013.4 |
| 20260503213530 | 61 | 261 | 11.0 | 19.0 | 0.00 | 0.00 | 0.00 | 35 | 1013.6 |
| 20260503213047 | 62 | 300 | 12.0 | 24.0 | 0.00 | 0.00 | 0.00 | 33 | 1013.7 |
| 20260503212523 | 62 | 272 | 10.0 | 24.0 | 0.00 | 0.00 | 0.00 | 34 | 1013.5 |
| 20260503212021 | 61 | 229 | 8.0 | 22.0 | 0.00 | 0.00 | 0.00 | 35 | 1013.5 |
| 20260503211519 | 61 | 242 | 6.0 | 15.0 | 0.00 | 0.00 | 0.00 | 35 | 1013.5 |
| 20260503211016 | 60 | 300 | 7.0 | 21.0 | 0.00 | 0.00 | 0.00 | 36 | 1013.5 |
| 20260503210532 | 61 | 335 | 11.0 | 22.0 | 0.00 | 0.00 | 0.00 | 33 | 1013.5 |
| 20260503210030 | 61 | 300 | 11.0 | 19.0 | 0.00 | 0.00 | 0.00 | 36 | 1013.5 |
| 20260503205547 | 60 | 327 | 7.0 | 13.0 | 0.00 | 0.00 | 0.00 | 36 | 1013.5 |
| 20260503205023 | 60 | 306 | 7.0 | 18.0 | 0.00 | 0.00 | 0.00 | 35 | 1013.6 |
| 20260503204521 | 60 | 309 | 9.0 | 20.0 | 0.00 | 0.00 | 0.00 | 36 | 1013.7 |
| 20260503204017 | 61 | 339 | 8.0 | 20.0 | 0.00 | 0.00 | 0.00 | 34 | 1013.7 |
| 20260503203536 | 62 | 266 | 8.0 | 20.0 | 0.00 | 0.00 | 0.00 | 35 | 1013.7 |
| 20260503203034 | 62 | 251 | 9.0 | 15.0 | 0.00 | 0.00 | 0.00 | 33 | 1013.8 |
| 20260503202531 | 62 | 335 | 6.0 | 16.0 | 0.00 | 0.00 | 0.00 | 36 | 1013.8 |
| 20260503202028 | 61 | 348 | 8.0 | 16.0 | 0.00 | 0.00 | 0.00 | 35 | 1013.9 |
| 20260503201547 | 62 | 303 | 7.0 | 20.0 | 0.00 | 0.00 | 0.00 | 36 | 1014.0 |
| 20260503201022 | 61 | 293 | 9.0 | 19.0 | 0.00 | 0.00 | 0.00 | 38 | 1014.0 |
| 20260503200519 | 60 | 329 | 11.0 | 19.0 | 0.00 | 0.00 | 0.00 | 37 | 1014.1 |
| 20260503200017 | 59 | 299 | 10.0 | 22.0 | 0.00 | 0.00 | 0.00 | 35 | 1014.1 |
| 20260503195514 | 61 | 318 | 9.0 | 23.0 | 0.00 | 0.00 | 0.00 | 35 | 1014.2 |
| 20260503195032 | 61 | 318 | 13.0 | 23.0 | 0.00 | 0.00 | 0.00 | 36 | 1014.2 |
| 20260503194530 | 60 | 257 | 6.0 | 20.0 | 0.00 | 0.00 | 0.00 | 35 | 1014.3 |
| 20260503194027 | 61 | 335 | 11.0 | 20.0 | 0.00 | 0.00 | 0.00 | 34 | 1014.3 |
| 20260503193525 | 60 | 283 | 5.0 | 19.0 | 0.00 | 0.00 | 0.00 | 37 | 1014.4 |
| 20260503193044 | 60 | 298 | 9.0 | 21.0 | 0.00 | 0.00 | 0.00 | 35 | 1014.6 |
| 20260503192520 | 60 | 316 | 13.0 | 26.0 | 0.00 | 0.00 | 0.00 | 35 | 1014.6 |
| 20260503192018 | 60 | 272 | 13.0 | 26.0 | 0.00 | 0.00 | 0.00 | 33 | 1014.5 |
| 20260503191553 | 61 | 345 | 11.0 | 20.0 | 0.00 | 0.00 | 0.00 | 34 | 1014.7 |
| 20260503191031 | 62 | 293 | 10.0 | 19.0 | 0.00 | 0.00 | 0.00 | 37 | 1014.7 |
| 20260503190529 | 61 | 357 | 8.0 | 20.0 | 0.00 | 0.00 | 0.00 | 37 | 1014.7 |
| 20260503190027 | 60 | 273 | 11.0 | 20.0 | 0.00 | 0.00 | 0.00 | 35 | 1014.7 |
| 20260503185524 | 61 | 294 | 10.0 | 22.0 | 0.00 | 0.00 | 0.00 | 36 | 1014.8 |
| 20260503185023 | 61 | 343 | 12.0 | 22.0 | 0.00 | 0.00 | 0.00 | 35 | 1014.9 |
| 20260503184522 | 60 | 325 | 9.0 | 21.0 | 0.00 | 0.00 | 0.00 | 34 | 1014.9 |
| 20260503184018 | 61 | 283 | 7.0 | 21.0 | 0.00 | 0.00 | 0.00 | 37 | 1015.1 |
| 20260503183516 | 60 | 324 | 13.0 | 20.0 | 0.00 | 0.00 | 0.00 | 35 | 1015.1 |
| 20260503183034 | 59 | 309 | 7.0 | 18.0 | 0.00 | 0.00 | 0.00 | 35 | 1015.2 |
| 20260503182531 | 60 | 264 | 7.0 | 25.0 | 0.00 | 0.00 | 0.00 | 34 | 1015.2 |
| 20260503182027 | 59 | 334 | 10.0 | 23.0 | 0.00 | 0.00 | 0.00 | 38 | 1015.1 |
| 20260503181546 | 59 | 357 | 8.0 | 20.0 | 0.00 | 0.00 | 0.00 | 35 | 1015.2 |
| 20260503181033 | 60 | 270 | 9.0 | 20.0 | 0.00 | 0.00 | 0.00 | 32 | 1015.3 |
| 20260503180532 | 60 | 249 | 9.0 | 18.0 | 0.00 | 0.00 | 0.00 | 35 | 1015.3 |
| 20260503180049 | 59 | 293 | 11.0 | 18.0 | 0.00 | 0.00 | 0.00 | 37 | 1015.2 |
| 20260503175527 | 58 | 248 | 9.0 | 22.0 | 0.00 | 0.00 | 0.00 | 37 | 1015.3 |
| 20260503175046 | 59 | 281 | 12.0 | 22.0 | 0.00 | 0.00 | 0.00 | 35 | 1015.5 |
| 20260503174523 | 59 | 358 | 8.0 | 20.0 | 0.00 | 0.00 | 0.00 | 37 | 1015.5 |
| 20260503174041 | 58 | 302 | 11.0 | 23.0 | 0.00 | 0.00 | 0.00 | 35 | 1015.5 |
| 20260503173517 | 59 | 262 | 11.0 | 23.0 | 0.00 | 0.00 | 0.00 | 37 | 1015.6 |
| 20260503173015 | 59 | 306 | 8.0 | 23.0 | 0.00 | 0.00 | 0.00 | 40 | 1015.6 |
| 20260503172533 | 58 | 285 | 6.0 | 20.0 | 0.00 | 0.00 | 0.00 | 44 | 1015.7 |
| 20260503172052 | 58 | 321 | 10.0 | 18.0 | 0.00 | 0.00 | 0.00 | 40 | 1015.6 |
| 20260503171529 | 58 | 261 | 11.0 | 22.0 | 0.00 | 0.00 | 0.00 | 36 | 1015.7 |
| 20260503171026 | 57 | 286 | 13.0 | 22.0 | 0.00 | 0.00 | 0.00 | 37 | 1015.9 |
| 20260503170545 | 57 | 264 | 9.0 | 21.0 | 0.00 | 0.00 | 0.00 | 40 | 1015.8 |
| 20260503150521 | 53 | 267 | 9.0 | 22.0 | 0.00 | 0.00 | 0.00 | 49 | 1017.1 |
| 20260503131027 | 46 | 285 | 11.0 | 25.0 | 0.00 | 0.00 | 0.00 | 56 | 1017.2 |
| 20260503130525 | 47 | 307 | 8.0 | 14.0 | 0.00 | 0.00 | 0.00 | 59 | 1017.2 |
| 20260503110546 | 38 | 286 | 5.0 | 7.0 | 0.00 | 0.00 | 0.00 | 72 | 1016.6 |
| 20260503081540 | 39 | 285 | 1.0 | 5.0 | 0.00 | 0.00 | 0.00 | 73 | 1015.1 |
| 20260503081016 | 39 | 285 | 2.0 | 5.0 | 0.00 | 0.00 | 0.00 | 73 | 1015.1 |
| 20260503080514 | 39 | 285 | 2.0 | 5.0 | 0.00 | 0.00 | 0.00 | 73 | 1015.1 |
| 20260503072516 | 40 | 285 | 1.0 | 6.0 | 0.00 | 0.00 | 0.00 | 71 | 1014.8 |
| 20260503072014 | 41 | 285 | 3.0 | 7.0 | 0.00 | 0.00 | 0.00 | 71 | 1014.7 |
| 20260503071532 | 41 | 285 | 4.0 | 7.0 | 0.00 | 0.00 | 0.00 | 71 | 1014.7 |
| 20260503071030 | 41 | 285 | 3.0 | 9.0 | 0.00 | 0.00 | 0.00 | 71 | 1014.6 |
| 20260503070528 | 41 | 285 | 4.0 | 10.0 | 0.00 | 0.00 | 0.00 | 71 | 1014.5 |